Regional Weather Roundup
Issued by NWS

Home | Current Version | Previous Version | Text Only | Print | Product List | Glossary On
Versions: 1 2 3 4 5 6 7 8 9 10 11 12 13 14 15 16 17 18 19 20 21 22 23 24 25 26 27 28 29 30 31 32 33 34 35 36 37 38 39 40 41 42 43 44 45 46 47 48 49 50
000
ASUS44 KLUB 300901
RWRTX
WEST TEXAS WEATHER ROUNDUP
NATIONAL WEATHER SERVICE LUBBOCK TX
400 AM CDT SAT APR 30 2016

NOTE: "FAIR" INDICATES FEW OR NO CLOUDS BELOW 12,000 FEET WITH NO
SIGNIFICANT WEATHER AND/OR OBSTRUCTIONS TO VISIBILITY.

TXZ004-006>008-010-012-014-016-OKZ002-301000-
TEXAS PANHANDLE/OKLAHOMA PANHANDLE

CITY           SKY/WX    TMP DP  RH WIND       PRES   REMARKS
AMARILLO       CLEAR     38  36  92 NW9       29.82F WCI  31
BORGER         CLEAR     40  36  86 W6        29.83S
CANADIAN       MOCLDY    42  40  91 NW6       29.81R
DALHART        CLEAR     37  34  89 CALM      29.82F
DUMAS          CLEAR     34  33  95 NW7       29.82S WCI  28
GUYMON         PTCLDY    38  35  89 NW10      29.80F WCI  31
HEREFORD       CLEAR     39  38  97 N6        29.84F WCI  35
$$

TXZ026-029-035-045-048-301000-
SOUTHERN PANHANDLE/SOUTH PLAINS/ROLLING PLAINS

CITY           SKY/WX    TMP DP  RH WIND       PRES   REMARKS
CHILDRESS      CLOUDY    48  43  82 N9        29.80R
SEMINOLE       CLEAR     49  42  75 CALM      29.81R
LUBBOCK        CLOUDY    46  43  89 N12       29.81R
SNYDER           N/A     51  49  90 NE9       29.78S
$$

TXZ052-054-060>062-072-078-127-140-154-169-301000-
PERMIAN BASIN/CONCHO VALLEY/BIG COUNTRY/EDWARDS PLATEAU

CITY           SKY/WX    TMP DP  RH WIND       PRES   REMARKS
ABILENE        CLOUDY    54  49  83 N6        29.76F
JUNCTION       PTCLDY    55  50  83 W5        29.72R
MIDLAND        CLEAR     60  22  23 CALM      29.78R
ODESSA         CLEAR     61  22  22 N13G23    29.78R
SAN ANGELO     MOCLDY    61  49  64 N7        29.73R
WINK           CLEAR     59  26  28 NW10      29.74F
$$

TXZ055-058-074-075-080-082-301000-
FAR WEST/SOUTHWEST MOUNTAINS/TRANS PECOS

CITY           SKY/WX    TMP DP  RH WIND       PRES   REMARKS
DRYDEN           N/A     61  20  20 SW7       29.74R
EL PASO        PTCLDY    60  27  28 CALM      29.85F
FORT STOCKTON  CLEAR     59  16  18 W10       29.80R
MARFA          CLEAR     41  13  31 N3        29.91R
PRESIDIO       FAIR      57  12  16 MISG      29.83R
$$

TXZ014-016-019-021>030-083-301000
TEXAS TECH WEST TEXAS MESONET/TEXAS PANHANDLE/NORTHERN SOUTH PLAINS

CITY           SKY/WX    TMP DP  RH WIND       PRES   REMARKS
ABERNATHY 5ENE   N/A     45  43  93 N9        29.84R
AMARILLO 9NNE    N/A     35  35  99 CALM      29.85S
AMARILLO 7SSE    N/A     38  36  93 NW10      29.84F WCI  30
AMHERST 1NE      N/A     45  42  90 N14       29.82F
BOOTLEG 11WNW    N/A     32  31  96 SW5       29.87S WCI  28
CANADIAN 6E      N/A     41  38  91 NW15      29.78R
CAPROCK CYN SP   N/A     45  42  89 N3        29.83R
CHILDRESS 2NNE   N/A     46  43  90 NW13      29.81R
CLAUDE 12SW      N/A     38  38  97 NW9       29.82F WCI  32
DIMMITT 2NE      N/A     35  34  96 NW7       29.83F WCI  29
FLOYDADA 2NNE    N/A     46  44  93 N6        29.82R
FRIONA 2NE       N/A     36  35  96 NW2       29.85F
GOODLETT 3W      N/A     47  43  85 NW14      29.79R
HART 3N          N/A     40  38  93 NW7       29.83F
HEREFORD 2NW     N/A     37  36  96 N6        29.85F WCI  32
MCLEAN 1E        N/A     42  39  89 NW16      29.80R
MEMPHIS 1NE      N/A     47  42  81 NW9       29.82R
MULESHOE 2SSW    N/A     40  38  91 N6        29.84F
OLTON 6S         N/A     44  41  89 N15       29.83S
PALO DURO SP     N/A     39  37  91 NW9       29.83F WCI  33
PAMPA 2E         N/A     38  37  94 NW13      29.82R WCI  31
PLAINVIEW 1S     N/A     44  42  90 NW9       29.83R
SILVERTON 7ESE   N/A     42  40  91 NW14      29.81R
TULIA 2ENE       N/A     40  39  97 NW9       29.84R WCI  34
TURKEY 2WSW      N/A     45  42  92 N8        29.82S
UMBARGER 3NNE    N/A     37  36  95 NW8       29.84F WCI  31
$$

TXZ033>036-039>041-045>048-301000
TEXAS TECH WEST TEXAS MESONET/SOUTH PLAINS

CITY           SKY/WX    TMP DP  RH WIND       PRES   REMARKS
AIKEN 3WSW       N/A     45  42  90 NW9       29.84R
ANDREWS 2NE      N/A     56  32  40 N6        29.80F
ANTON 6SSW       N/A     46  43  90 N13       29.84R
BROWNFIELD 2S    N/A     49  42  77 N13       29.83R
DENVR CTY 7WNW   N/A     43  38  83 N6        29.82R
GAIL 2ESE        N/A     50  47  90 NE5       29.79S
LAMESA 2SE       N/A     52  48  87 NE7       29.81R
LEVELLAND 4S     N/A     46  42  88 N12       29.84R
LUBBOCK 3WNW     N/A     47  43  85 N8        29.84R
MORTON 1ENE      N/A     47  43  86 N12       29.82F
ODONNELL 1N      N/A     50  46  84 E7        29.80S
PLAINS 3N        N/A     44  40  88 N8        29.82S
RALLS 1SE        N/A     47  44  88 N8        29.83S
REESE CENTER     N/A     44  42  92 NE7       29.84R
SEAGRAVES 1SW    N/A     48  42  80 N6        29.83R
SEMINOLE 2NNE    N/A     48  41  76 N8        29.81S
SLATON 2NE       N/A     49  47  91 N3        29.82S
SNYDER 3E        N/A     51  47  86 NE8       29.78S
SUNDOWN 8SW      N/A     43  41  91 N8        29.83R
TAHOKA 3NNE      N/A     47  44  90 NE5       29.82R
WOLFFORTH 6SSW   N/A     47  41  80 N12       29.83R
$$

TXZ031-032-036>038-042>044-301000-
TEXAS TECH WEST TEXAS MESONET/ROLLING PLAINS

CITY           SKY/WX    TMP DP  RH WIND       PRES   REMARKS
ASPERMONT 3NE    N/A     47  45  91 NW5       29.79R
FLUVANNA 3WNW    N/A     48  45  90 NE7       29.80S
GRAHAM 5SSW      N/A     49  46  88 E8        29.81S
GUTHRIE 10WSW    N/A     48  45  89 N6        29.79R
HASKELL 1NW      N/A     52  45  78 N12       29.77S
JAYTON 1SSE      N/A     46  45  95 NW5       29.79S
KNOX CITY 3NW    N/A     50  45  81 NW7       29.78S
LK A HENRY 1NW   N/A     49  46  89 NE5       29.80S
NORTHFIELD 1S    N/A     48  46  93 N8        29.82S
ODELL 4ENE       N/A     47  45  95 NW13      29.78R
PADUCAH 10SW     N/A     47  45  93 NW16      29.78F
POST 1NE         N/A     47  45  91 N2        29.81R
RRING SPRGS 3N   N/A     44  44  98 NW8       29.82R
SEYMOUR 3NW      N/A     50  47  87 NW9       29.76R
SPUR 1W          N/A     47  45  92 NW3       29.80S
WEINERT 2NNE     N/A     51  46  82 N9        29.78R
WHITE RVR 6NE    N/A     45  43  93 N9        29.80S
$$

TXZ052-054-060>062-072-078-127-140-154-169-301000-
TEXAS TECH WEST TEXAS MESONET/PERMIAN BASIN/
CONCHO VALLEY/BIG COUNTRY/EDWARDS PLATEAU

CITY           SKY/WX    TMP DP  RH WIND       PRES   REMARKS
COYANOSA 2N      N/A     54  14  21 S8        29.79R
JUNCTION 1SSW    N/A     54  53  98 S2        29.74R
SAN ANGELO 7NW   N/A     61  51  70 SE3       29.75R
STRLNG CT 4WSW   N/A     59  51  74 NW8       29.77R
ST LAWRNCE 5SW   N/A     61  27  27 N7        29.78S
SWEETWATR 11SW   N/A     53  49  87 NE12      29.78S
WALL 1E          N/A     56  46  67 NE6       29.75S
$$

TXZ055-058-074-075-080-082-301000-
TEXAS TECH WEST TEXAS MESONET/FAR WEST/SOUTHWEST MOUNTAINS/TRANS PECOS

CITY           SKY/WX    TMP DP  RH WIND       PRES   REMARKS
PRSMN GAP BBNP   N/A     65   9  11 SW1       29.81R
GUADLPE MTN NP   N/A     55  21  26 W17       29.88S
$$




USA.gov is the U.S. government's official web portal to all federal, state and local government web resources and services.